London-Corbin, KY

9:24 AM EDT on October 22, 2019 (GMT -0400)
London-Corbin / McKee

Weather History for KLOZ - May, 2019

Change the Weather History Date:

Tuesday, May 7, 2019

  Actual Average Record
Temperature  
Mean Temperature 65 °F 62 °F  
Max Temperature 80 °F 74 °F 88 °F (2014)
Min Temperature 49 °F 51 °F 34 °F (1989)
Degree Days  
Heating Degree Days 0 4  
Month to date heating degree days 9 32  
Since 1 July heating degree days 3989 4133  
Cooling Degree Days 0 2  
Month to date cooling degree days 16 9  
Year to date cooling degree days 28 35  
Growing Degree Days 14 (Base 50)    
Moisture  
Dew Point 54 °F    
Average Humidity 70    
Maximum Humidity 100    
Minimum Humidity 39    
Precipitation  
Precipitation 0.00 in 0.17 in 4.08 in (1984)
Month to date precipitation 2.53 1.11  
Sea Level Pressure  
Sea Level Pressure 30.11 in    
Wind  
Wind Speed 1 mph (ESE)    
Max Wind Speed 8 mph    
Max Gust Speed 12 mph    
Visibility 10 miles    
Events      
T = Trace of Precipitation, MM = Missing Value Source: NWS Daily Summary

Daily Weather History Graph

Daily Weather History Graph

Search for Another Location

Airport or City:

Astronomy

May. 07, 2019 Rise Set
Actual Time 6:35 AM EDT 8:30 PM EDT
Civil Twilight 6:07 AM EDT 8:59 PM EDT
Nautical Twilight 5:32 AM EDT 9:33 PM EDT
Astronomical Twilight 4:55 AM EDT 10:10 PM EDT
Moon 8:42 AM EDT (5/7) 11:28 PM EDT (5/7)
Length of Visible Light 14h 51m
Length of Day
13h 55m
Waxing Crescent, 8% of the Moon is Illuminated
May 7
Waxing Crescent
May 11
First Quarter
May 18
Full
May 26
Last Quarter
Jun 3
New

Hourly Weather History & Observations

Time (EDT) Temp. Heat Index Dew Point Humidity Pressure Visibility Wind Dir Wind Speed Gust Speed Precip Events Conditions
12:53 AM 55.0 °F - 53.1 °F 93% 30.11 in 10.0 mi Calm Calm - N/A   Clear
1:53 AM 54.0 °F - 52.0 °F 93% 30.10 in 10.0 mi Calm Calm - N/A   Clear
2:53 AM 52.0 °F - 52.0 °F 100% 30.09 in 9.0 mi Calm Calm - N/A   Clear
3:53 AM 51.1 °F - 50.0 °F 96% 30.08 in 10.0 mi Calm Calm - N/A   Clear
4:53 AM 50.0 °F - 50.0 °F 100% 30.08 in 10.0 mi Calm Calm - N/A   Clear
5:53 AM 50.0 °F - 48.9 °F 96% 30.09 in 10.0 mi Calm Calm - N/A   Clear
6:53 AM 48.9 °F - 48.9 °F 100% 30.11 in 10.0 mi Calm Calm - N/A   Clear
7:53 AM 52.0 °F - 51.1 °F 97% 30.14 in 10.0 mi Calm Calm - N/A   Mostly Cloudy
8:53 AM 55.9 °F - 53.1 °F 90% 30.16 in 10.0 mi Calm Calm - N/A   Scattered Clouds
9:53 AM 63.0 °F - 54.0 °F 72% 30.15 in 10.0 mi Calm Calm - N/A   Clear
10:53 AM 70.0 °F - 55.9 °F 61% 30.15 in 10.0 mi SSW 4.6 mph - N/A   Clear
11:53 AM 73.0 °F - 55.9 °F 55% 30.16 in 10.0 mi Calm Calm - N/A   Clear
12:53 PM 75.9 °F - 54.0 °F 46% 30.14 in 10.0 mi Variable 3.5 mph - N/A   Clear
1:53 PM 77.0 °F - 54.0 °F 45% 30.13 in 10.0 mi Calm Calm - N/A   Clear
2:53 PM 78.1 °F - 53.1 °F 42% 30.10 in 10.0 mi Variable 4.6 mph - N/A   Clear
3:53 PM 79.0 °F - 51.1 °F 38% 30.09 in 10.0 mi Calm Calm - N/A   Clear
4:53 PM 80.1 °F 79.9 °F 53.1 °F 39% 30.08 in 10.0 mi SE 4.6 mph - N/A   Clear
5:53 PM 78.1 °F - 54.0 °F 43% 30.08 in 10.0 mi Variable 3.5 mph - N/A   Clear
6:53 PM 80.1 °F 80.1 °F 55.0 °F 42% 30.08 in 10.0 mi Calm Calm - N/A   Clear
7:53 PM 75.9 °F - 55.9 °F 50% 30.07 in 10.0 mi NW 3.5 mph - N/A   Clear
8:53 PM 71.1 °F - 57.0 °F 61% 30.08 in 10.0 mi NNE 3.5 mph - N/A   Clear
9:53 PM 68.0 °F - 57.9 °F 70% 30.09 in 10.0 mi Calm Calm - N/A   Mostly Cloudy
10:53 PM 64.0 °F - 59.0 °F 84% 30.09 in 10.0 mi Calm Calm - N/A   Clear
11:53 PM 62.1 °F - 57.9 °F 86% 30.09 in 10.0 mi Calm Calm - N/A   Clear